AirNav   Everest Fuels
 
 1375 users online  

2J0 Wakulla County Airport
Panacea, Florida, USA

GOING TO PANACEA?


FAA INFORMATION EFFECTIVE 16 JULY 2020

Location

FAA Identifier: 2J0
Lat/Long: 29-59-22.0400N 084-23-43.4100W
29-59.367333N 084-23.723500W
29.9894556,-84.3953917
(estimated)
Elevation: 11 ft. / 3.4 m (surveyed)
Variation: 01W (1985)
From city: 3 miles S of PANACEA, FL
Time zone: UTC -4 (UTC -5 during Standard Time)
Zip code: 32346

Airport Operations

Airport use: Open to the public
Activation date: 06/1966
Control tower: no
ARTCC: JACKSONVILLE CENTER
FSS: GAINESVILLE FLIGHT SERVICE STATION
NOTAMs facility: GNV (NOTAM-D service available)
Attendance: UNATNDD
GROUND ACCESS BY PRIOR REQUEST, 850-321-0373.
Wind indicator: lighted
Segmented circle: no
Beacon: white-green (lighted land airport)
Operates sunset to sunrise.

Airport Communications

CTAF: 122.9

Nearby radio navigation aids

VOR radial/distance  VOR name  Freq  Var
SZWr180/34.0SEMINOLE VORTAC117.5002E

 
NDB name  Hdg/Dist  Freq  Var  ID
APALACHICOLA067/36.634903WAAF .- .- ..-.

Airport Services

Parking: tiedowns
Airframe service: NONE
Powerplant service: NONE
Bottled oxygen: NONE
Bulk oxygen: NONE

Runway Information

Runway 18/36

Dimensions: 2590 x 70 ft. / 789 x 21 m
Surface: turf, in fair condition
RY 18/36 SOFT TURF.
Runway edge markings: 18/36 LENGTH AND WIDTH AND DSPLCD THLDS MKD WITH WHITE TIRES.
RUNWAY 18  RUNWAY 36
Latitude: 29-59.581000N29-59.153667N
Longitude: 084-23.723500W084-23.723500W
Traffic pattern: leftleft
Displaced threshold: 200 ft.375 ft.
Markings: NSTD, in fair conditionNSTD, in fair condition
Obstructions: 15 ft. road, 102 ft. from runway, 125 ft. left of centerline, 6:1 slope to clear29 ft. tree, 230 ft. from runway, 80 ft. right of centerline, 8:1 slope to clear

Airport Ownership and Management from official FAA records

Ownership: Publicly-owned
Owner: WAKULLA COUNTY
PO BOX 1263
CRAWFORDVILLE, FL 32326-1263
Phone 850-926-0919
CONTACT PERSON: DAVID EDWARDS
Manager: STEVEN FULTS
35 MONOCOUPE CIRCLE
PANACEA, FL 32346
Phone (850) 984-3500
ALT PHONE 850-984-3500.

Airport Operational Statistics

Aircraft based on the field: 3
Single engine airplanes: 2
Ultralights: 1
    
Aircraft operations: avg 46/week *
84% local general aviation
13% transient general aviation
3% military
* for 12-month period ending 02 April 2018

Additional Remarks

AER 36 HAS 10-25 FT TREES AND 5 FT FENCE.
50 FT TREES WEST SIDE OF RY 100 FT FROM CNTRLN.
TREES, BLDGS, WINDSOCK POLES, LIGHTNING DETECTION SYSTEM, BERMS AND UTILITY POLES 75-125 FT EAST OF RY 18/36.
TREES 100-125 FT WEST OF RY 18/36.
FOR CD CTC TALLAHASSEE APCH AT 850-942-8311, WHEN APCH CLSD CTC JACKSONVILLE ARTCC AT 904-845-1592.

Instrument Procedures

There are no published instrument procedures at 2J0.

Some nearby airports with instrument procedures:

KTLH - Tallahassee International Airport (25 nm N)
KAAF - Apalachicola Regional Airport-Cleve Randolph Field (36 nm SW)
2J9 - Quincy Municipal Airport (37 nm N)
KFPY - Perry-Foley Airport (43 nm E)
70J - Cairo-Grady County Airport (55 nm N)
 
Loc | Ops | Rwys | IFR | FBO | Links
Com | Nav | Svcs | Stats | Notes
Area around 2J0 (Wakulla County Airport)
 
Road maps at: MapQuest Bing Google
 
Aerial photo
WARNING: Photo may not be current or correct
Aerial photo of 2J0 (Wakulla County Airport)
Taken in May 2016
looking northwest

Do you have a better or more recent aerial photo of Wakulla County Airport that you would like to share? If so, please send us your photo.

 
Sectional chart

 
Airport distance calculator
Flying to Wakulla County Airport? Find the distance to fly.

From to 2J0

Sunrise and sunset
Times for 03-Aug-2020
 Local
(UTC-4)
 Zulu
(UTC)
Morning civil twilight06:3410:34
Sunrise06:5910:59
Sunset20:2800:28
Evening civil twilight20:5400:54

Current date and time
Zulu (UTC)  03-Aug-2020 21:52:17
Local (UTC-4)  03-Aug-2020 17:52:17
 
METAR
KTLH 
25nm N 
032053Z 29003KT 10SM FEW065 SCT095 36/21 A2985 RMK AO2 SLP107 T03560211 56017
KAAF 
37nm SW 
032053Z AUTO 25016KT 10SM CLR 34/23 A2988 RMK AO2 SLP117 T03390228 56014 TSNO
K2J9 
37nm N 
032135Z AUTO 30004KT 10SM FEW065 36/20 A2986 RMK AO2
KFPY 
43nm E 
032135Z AUTO 24007KT 10SM CLR 33/26 A2987 RMK AO2 T03320257
TAF
KTLH 
25nm N 
031721Z 0318/0418 VRB04KT P6SM FEW120 FM032000 VRB04KT P6SM FEW200
NOTAMs
Click for the latest NOTAMs
NOTAMs are issued by the DoD/FAA and will open in a separate window not controlled by AirNav.

 

 
 

Would you like to see your business listed on this page?

 If your business provides an interesting product or service to pilots, flight crews, aircraft, or users of the Wakulla County Airport, you should consider listing it here.  To start the listing process, click on the button below
 
Add a business
 

Other Pages about Wakulla County Airport

www.mywakulla.com/...
 
Update a link
 
Copyright © AirNav, LLC. All rights reserved. Privacy Policy  Contact